Sussex, NJ

9:11 AM EST on February 25, 2017 (GMT -0500)
Sussex

Weather History for KFWN - January, 2013

Change the Weather History Date:

Tuesday, January 8, 2013

  Actual Average Record
Temperature  
Mean Temperature 29 °F -  
Max Temperature 43 °F 34 °F 63 °F (2008)
Min Temperature 15 °F 16 °F -4 °F (1970)
Degree Days  
Heating Degree Days 36    
Moisture  
Dew Point 21 °F    
Average Humidity 76    
Maximum Humidity 88    
Minimum Humidity 51    
Precipitation  
Precipitation 0.00 in - - ()
Sea Level Pressure  
Sea Level Pressure 30.36 in    
Wind  
Wind Speed 2 mph (SW)    
Max Wind Speed 7 mph    
Max Gust Speed -    
Visibility 6 miles    
Events      
Averages and records for this station are not official NWS values.
T = Trace of Precipitation, MM = Missing Value Source: NWS Daily Summary

Daily Weather History Graph

Daily Weather History Graph

Search for Another Location

Airport or City:

Trip Planner

Search our weather history database for the weather conditions in past years. The results will help you decide how hot, cold, wet, or windy it might be!

Date:

Astronomy

Jan. 08, 2013 Rise Set
Actual Time 7:23 AM EST 4:47 PM EST
Civil Twilight 6:53 AM EST 5:17 PM EST
Nautical Twilight 6:18 AM EST 5:52 PM EST
Astronomical Twilight 5:45 AM EST 6:25 PM EST
Moon 3:53 AM EST (1/8) 1:47 PM EST (1/8)
Length of Visible Light 10h 24m
Length of Day
9h 23m
Waning Crescent, 14% of the Moon is Illuminated
Jan 8
Waning Crescent
Jan 11
New
Jan 18
First Quarter
Jan 26
Full
Feb 3
Last Quarter

Hourly Weather History & Observations

Time (EST) Temp. Windchill Dew Point Humidity Pressure Visibility Wind Dir Wind Speed Gust Speed Precip Events Conditions
12:53 AM 19.0 °F - 16.0 °F 88% 30.36 in 8.0 mi Calm Calm - N/A   Clear
1:53 AM 19.0 °F - 15.1 °F 85% 30.35 in 6.0 mi Calm Calm - N/A   Clear
2:53 AM 18.0 °F - 15.1 °F 88% 30.34 in 6.0 mi Calm Calm - N/A   Clear
3:53 AM 19.9 °F 14.9 °F 16.0 °F 85% 30.33 in 6.0 mi SSW 3.5 mph - N/A   Clear
4:53 AM 19.0 °F 12.3 °F 15.1 °F 85% 30.34 in 5.0 mi SW 4.6 mph - N/A   Clear
5:53 AM 16.0 °F - 12.0 °F 84% 30.35 in 5.0 mi Calm Calm - N/A   Clear
6:53 AM 17.1 °F 10.0 °F 12.9 °F 84% 30.38 in 5.0 mi SSW 4.6 mph - N/A   Clear
7:38 AM 17.6 °F - 12.2 °F 79% 30.36 in 2.5 mi Calm Calm - N/A   Clear
7:51 AM 15.8 °F - 12.2 °F 86% 30.37 in 4.0 mi Calm Calm - N/A   Clear
7:53 AM 16.0 °F 10.4 °F 12.9 °F 88% 30.39 in 4.0 mi SW 3.5 mph - N/A   Clear
8:53 AM 23.0 °F 18.4 °F 19.9 °F 88% 30.39 in 3.0 mi WSW 3.5 mph - N/A   Clear
9:53 AM 30.0 °F 24.1 °F 24.1 °F 79% 30.40 in 5.0 mi SW 5.8 mph - N/A   Haze
10:53 AM 35.1 °F 30.1 °F 25.0 °F 67% 30.38 in 5.0 mi SW 5.8 mph - N/A   Haze
11:53 AM 39.0 °F 34.8 °F 25.0 °F 57% 30.35 in 8.0 mi Variable 5.8 mph - N/A   Clear
12:53 PM 41.0 °F 36.4 °F 25.0 °F 53% 30.34 in 9.0 mi SSW 6.9 mph - N/A   Clear
1:53 PM 43.0 °F 40.3 °F 26.1 °F 51% 30.33 in 9.0 mi SW 4.6 mph - N/A   Clear
2:53 PM 43.0 °F 38.8 °F 26.1 °F 51% 30.33 in 10.0 mi SSW 6.9 mph - N/A   Clear
3:53 PM 43.0 °F 40.3 °F 26.1 °F 51% 30.34 in 10.0 mi SW 4.6 mph - N/A   Clear
4:53 PM 39.9 °F - 26.1 °F 58% 30.35 in 9.0 mi Calm Calm - N/A   Clear
5:53 PM 37.9 °F - 26.1 °F 62% 30.37 in 9.0 mi Calm Calm - N/A   Clear
6:53 PM 36.0 °F 33.3 °F 27.0 °F 70% 30.38 in 9.0 mi SW 3.5 mph - N/A   Clear
7:53 PM 32.0 °F - 26.1 °F 79% 30.38 in 7.0 mi Calm Calm - N/A   Clear
8:53 PM 30.9 °F - 27.0 °F 85% 30.38 in 7.0 mi Calm Calm - N/A   Clear
9:53 PM 28.9 °F - 25.0 °F 85% 30.38 in 5.0 mi Calm Calm - N/A   Clear
10:53 PM 26.1 °F - 23.0 °F 88% 30.39 in 3.0 mi Calm Calm - N/A   Clear
11:53 PM 25.0 °F - 21.9 °F 88% 30.38 in 3.0 mi Calm Calm - N/A   Clear